User: anonymous   Login
Location: Mount Tamalpais State Park
(37.9108°N, 122.6128°W)
Time: 19:37:44
(UTC-07:00)
Language:

Cosmos 1814 Rocket - Orbit

View from above orbital plane
View from above orbital plane
View from above satellite
View from above satellite

Ground track
Ground track

The orbit data is extracted from the following two-line orbital elements,

1 17304U 87006B   15213.63114246  .00000090  00000-0  38649-4 0  9998
2 17304 074.0590 270.6484 0031003 281.0868 078.6799 14.37514021494789
Epoch (UTC): 01 August 2015 15:08:50
Eccentricity: 0.0031003
inclination: 74.0590°
perigee height: 744 km
apogee height: 789 km
right ascension of ascending node: 270.6484°
argument of perigee: 281.0868°
revolutions per day: 14.37514021
mean anomaly at epoch: 78.6799°
orbit number at epoch: 49478

The dashed part of the orbit path shows where the satellite is in the earth's shadow,  

DLR